| time (UTC) | temp C | wind direction | speed KPH | gust KPH | rain 1hr cm | rain 24hr cm | rain mn cm | humidity % | barometer mb |
| 20260505170539 | 25 | 205 | 17.7 | 35.4 | 0.00 | 0.00 | 0.00 | 79 | 1004.5 |
| 20260505170040 | 25 | 217 | 12.9 | 32.2 | 0.00 | 0.00 | 0.00 | 80 | 1004.6 |
| 20260505165539 | 25 | 193 | 19.3 | 45.1 | 0.00 | 0.00 | 0.00 | 79 | 1004.6 |
| 20260505165038 | 24 | 212 | 16.1 | 45.1 | 0.00 | 0.00 | 0.00 | 79 | 1004.5 |
| 20260505164541 | 24 | 198 | 9.7 | 45.1 | 0.00 | 0.00 | 0.00 | 80 | 1004.5 |
| 20260505164036 | 24 | 227 | 17.7 | 45.1 | 0.00 | 0.00 | 0.00 | 80 | 1004.6 |
| 20260505163536 | 24 | 209 | 14.5 | 35.4 | 0.00 | 0.00 | 0.00 | 81 | 1004.7 |
| 20260505163040 | 24 | 215 | 14.5 | 33.8 | 0.00 | 0.00 | 0.00 | 80 | 1004.8 |
| 20260505162534 | 24 | 215 | 14.5 | 40.2 | 0.00 | 0.00 | 0.00 | 81 | 1004.8 |
| 20260505162034 | 24 | 232 | 16.1 | 40.2 | 0.00 | 0.00 | 0.00 | 80 | 1004.8 |
| 20260505161534 | 24 | 252 | 16.1 | 35.4 | 0.00 | 0.00 | 0.00 | 81 | 1004.9 |
| 20260505161034 | 23 | 175 | 16.1 | 45.1 | 0.00 | 0.00 | 0.00 | 81 | 1004.7 |
| 20260505160533 | 23 | 236 | 19.3 | 46.7 | 0.00 | 0.00 | 0.00 | 82 | 1004.7 |
| 20260505153034 | 23 | 188 | 19.3 | 35.4 | 0.00 | 0.00 | 0.00 | 82 | 1004.8 |
| 20260505152527 | 23 | 218 | 14.5 | 38.6 | 0.00 | 0.00 | 0.00 | 83 | 1004.9 |
| 20260505152035 | 23 | 193 | 20.9 | 40.2 | 0.00 | 0.00 | 0.00 | 83 | 1004.8 |
| 20260505151528 | 23 | 246 | 22.5 | 40.2 | 0.00 | 0.00 | 0.00 | 82 | 1004.6 |
| 20260505151026 | 23 | 236 | 20.9 | 43.5 | 0.00 | 0.00 | 0.00 | 82 | 1004.6 |
| 20260505150527 | 23 | 226 | 16.1 | 43.5 | 0.00 | 0.00 | 0.00 | 82 | 1004.7 |
| 20260505140516 | 22 | 185 | 12.9 | 37.0 | 0.00 | 0.00 | 0.00 | 84 | 1004.6 |
| 20260505125010 | 21 | 184 | 9.7 | 25.7 | 0.00 | 0.00 | 0.00 | 86 | 1004.3 |
| 20260505124509 | 21 | 173 | 11.3 | 19.3 | 0.00 | 0.00 | 0.00 | 87 | 1004.2 |
| 20260505124008 | 21 | 217 | 9.7 | 20.9 | 0.00 | 0.00 | 0.00 | 87 | 1004.2 |
| 20260505123508 | 21 | 173 | 11.3 | 29.0 | 0.00 | 0.00 | 0.00 | 87 | 1004.1 |
| 20260505123007 | 21 | 193 | 14.5 | 29.0 | 0.00 | 0.00 | 0.00 | 87 | 1004.0 |
| 20260505122506 | 21 | 225 | 9.7 | 17.7 | 0.00 | 0.00 | 0.00 | 87 | 1004.0 |
| 20260505122005 | 21 | 225 | 6.4 | 25.7 | 0.00 | 0.00 | 0.00 | 88 | 1004.1 |
| 20260505121505 | 21 | 202 | 9.7 | 25.7 | 0.00 | 0.00 | 0.00 | 88 | 1004.1 |
| 20260505121005 | 21 | 204 | 11.3 | 30.6 | 0.00 | 0.00 | 0.00 | 88 | 1003.9 |
| 20260505120503 | 21 | 237 | 14.5 | 30.6 | 0.00 | 0.00 | 0.00 | 88 | 1003.9 |
| 20260505120005 | 21 | 245 | 8.0 | 29.0 | 0.00 | 0.00 | 0.00 | 88 | 1004.0 |
| 20260505115503 | 21 | 209 | 14.5 | 24.1 | 0.00 | 0.00 | 0.00 | 88 | 1003.9 |
| 20260505115003 | 21 | 218 | 14.5 | 32.2 | 0.00 | 0.00 | 0.00 | 88 | 1003.9 |
| 20260505114503 | 21 | 217 | 8.0 | 32.2 | 0.00 | 0.00 | 0.00 | 88 | 1003.9 |
| 20260505114003 | 21 | 221 | 11.3 | 22.5 | 0.00 | 0.00 | 0.00 | 88 | 1003.9 |
| 20260505113502 | 21 | 215 | 11.3 | 24.1 | 0.00 | 0.00 | 0.00 | 88 | 1003.9 |
| 20260505113001 | 21 | 210 | 9.7 | 32.2 | 0.00 | 0.00 | 0.00 | 88 | 1003.8 |
| 20260505112501 | 21 | 205 | 12.9 | 32.2 | 0.00 | 0.00 | 0.00 | 88 | 1003.8 |
| 20260505112003 | 21 | 217 | 14.5 | 29.0 | 0.00 | 0.00 | 0.00 | 88 | 1003.6 |
| 20260505111504 | 21 | 140 | 12.9 | 24.1 | 0.00 | 0.00 | 0.00 | 88 | 1003.5 |
| 20260505111002 | 21 | 188 | 16.1 | 30.6 | 0.00 | 0.00 | 0.00 | 88 | 1003.5 |
| 20260505110502 | 21 | 242 | 12.9 | 30.6 | 0.00 | 0.00 | 0.00 | 88 | 1003.6 |
| 20260505102056 | 21 | 212 | 9.7 | 29.0 | 0.00 | 0.00 | 0.00 | 87 | 1003.8 |
| 20260505101556 | 21 | 213 | 9.7 | 41.8 | 0.00 | 0.00 | 0.00 | 87 | 1004.0 |
| 20260505101055 | 21 | 211 | 17.7 | 41.8 | 0.00 | 0.00 | 0.00 | 87 | 1003.9 |
| 20260505100555 | 21 | 209 | 17.7 | 37.0 | 0.00 | 0.00 | 0.00 | 87 | 1003.8 |
| 20260505100057 | 21 | 207 | 14.5 | 37.0 | 0.00 | 0.00 | 0.00 | 87 | 1003.9 |
| 20260505095557 | 21 | 196 | 12.9 | 38.6 | 0.00 | 0.00 | 0.00 | 86 | 1003.9 |
| 20260505095052 | 21 | 204 | 17.7 | 38.6 | 0.00 | 0.00 | 0.00 | 86 | 1003.8 |
| 20260505094553 | 21 | 178 | 16.1 | 30.6 | 0.00 | 0.00 | 0.00 | 86 | 1004.0 |
| 20260505094052 | 21 | 244 | 11.3 | 35.4 | 0.00 | 0.00 | 0.00 | 86 | 1003.9 |
| 20260505093552 | 21 | 209 | 17.7 | 35.4 | 0.00 | 0.00 | 0.00 | 86 | 1003.9 |
| 20260505093051 | 21 | 221 | 14.5 | 30.6 | 0.00 | 0.00 | 0.00 | 86 | 1003.8 |
| 20260505092550 | 21 | 219 | 14.5 | 38.6 | 0.00 | 0.00 | 0.00 | 85 | 1003.8 |
| 20260505092050 | 21 | 240 | 17.7 | 38.6 | 0.00 | 0.00 | 0.00 | 85 | 1003.8 |
| 20260505091613 | 21 | 209 | 11.3 | 35.4 | 0.00 | 0.00 | 0.00 | 85 | 1003.7 |
| 20260505091049 | 21 | 224 | 16.1 | 33.8 | 0.00 | 0.00 | 0.00 | 85 | 1003.8 |
| 20260505090548 | 21 | 210 | 14.5 | 33.8 | 0.00 | 0.00 | 0.00 | 85 | 1003.8 |
| 20260505090104 | 21 | 205 | 14.5 | 33.8 | 0.00 | 0.00 | 0.00 | 85 | 1003.7 |
| 20260505085548 | 21 | 231 | 8.0 | 32.2 | 0.00 | 0.00 | 0.00 | 85 | 1003.8 |
| 20260505085051 | 21 | 209 | 17.7 | 32.2 | 0.00 | 0.00 | 0.00 | 85 | 1003.8 |
| 20260505084602 | 21 | 207 | 14.5 | 30.6 | 0.00 | 0.00 | 0.00 | 85 | 1003.8 |
| 20260505084046 | 21 | 226 | 12.9 | 32.2 | 0.00 | 0.00 | 0.00 | 84 | 1003.9 |
| 20260505083549 | 21 | 205 | 14.5 | 35.4 | 0.00 | 0.00 | 0.00 | 84 | 1003.9 |
| 20260505083100 | 21 | 217 | 14.5 | 38.6 | 0.00 | 0.00 | 0.00 | 84 | 1003.8 |
| 20260505082543 | 21 | 203 | 14.5 | 38.6 | 0.00 | 0.00 | 0.00 | 84 | 1004.0 |
| 20260505082042 | 21 | 198 | 12.9 | 33.8 | 0.00 | 0.00 | 0.00 | 84 | 1004.2 |
| 20260505081555 | 21 | 209 | 14.5 | 33.8 | 0.00 | 0.00 | 0.00 | 85 | 1004.3 |
| 20260505081043 | 21 | 216 | 11.3 | 40.2 | 0.00 | 0.00 | 0.00 | 85 | 1004.3 |
| 20260505080541 | 21 | 217 | 14.5 | 40.2 | 0.00 | 0.00 | 0.00 | 85 | 1004.2 |
| 20260505080052 | 21 | 200 | 14.5 | 30.6 | 0.00 | 0.00 | 0.00 | 85 | 1004.2 |
| 20260505075542 | 21 | 211 | 11.3 | 35.4 | 0.00 | 0.00 | 0.00 | 85 | 1004.2 |
| 20260505075041 | 21 | 165 | 12.9 | 35.4 | 0.00 | 0.00 | 0.00 | 85 | 1004.3 |
| 20260505074539 | 21 | 246 | 17.7 | 33.8 | 0.00 | 0.00 | 0.00 | 85 | 1004.4 |
| 20260505074038 | 21 | 219 | 14.5 | 33.8 | 0.00 | 0.00 | 0.00 | 85 | 1004.4 |
| 20260505073537 | 21 | 176 | 14.5 | 41.8 | 0.00 | 0.00 | 0.00 | 85 | 1004.5 |
| 20260505073049 | 21 | 213 | 20.9 | 41.8 | 0.00 | 0.00 | 0.00 | 84 | 1004.7 |
| 20260505072534 | 21 | 214 | 14.5 | 38.6 | 0.00 | 0.00 | 0.00 | 84 | 1004.8 |
| 20260505072034 | 21 | 225 | 16.1 | 41.8 | 0.00 | 0.00 | 0.00 | 84 | 1004.9 |
| 20260505071544 | 21 | 204 | 14.5 | 41.8 | 0.00 | 0.00 | 0.00 | 84 | 1004.9 |
| 20260505071035 | 21 | 205 | 16.1 | 41.8 | 0.00 | 0.00 | 0.00 | 84 | 1004.9 |
| 20260505070535 | 21 | 173 | 14.5 | 35.4 | 0.00 | 0.00 | 0.00 | 84 | 1004.9 |
| 20260505070041 | 21 | 216 | 16.1 | 40.2 | 0.00 | 0.00 | 0.00 | 84 | 1005.0 |
| 20260505065531 | 21 | 198 | 9.7 | 40.2 | 0.00 | 0.00 | 0.00 | 83 | 1005.1 |
| 20260505065029 | 21 | 216 | 11.3 | 30.6 | 0.00 | 0.00 | 0.00 | 83 | 1005.1 |
| 20260505064529 | 21 | 198 | 11.3 | 37.0 | 0.00 | 0.00 | 0.00 | 83 | 1005.3 |
| 20260505064031 | 22 | 213 | 11.3 | 37.0 | 0.00 | 0.00 | 0.00 | 82 | 1005.4 |
| 20260505063528 | 22 | 214 | 12.9 | 29.0 | 0.00 | 0.00 | 0.00 | 82 | 1005.5 |
| 20260505063035 | 22 | 215 | 16.1 | 29.0 | 0.00 | 0.00 | 0.00 | 82 | 1005.4 |
| 20260505062527 | 22 | 187 | 11.3 | 37.0 | 0.00 | 0.00 | 0.00 | 82 | 1005.4 |
| 20260505062025 | 22 | 206 | 14.5 | 37.0 | 0.00 | 0.00 | 0.00 | 82 | 1005.4 |
| 20260505061528 | 22 | 202 | 8.0 | 24.1 | 0.00 | 0.00 | 0.00 | 82 | 1005.4 |
| 20260505061024 | 22 | 182 | 8.0 | 22.5 | 0.00 | 0.00 | 0.00 | 81 | 1005.4 |
| 20260505060524 | 22 | 202 | 11.3 | 25.7 | 0.00 | 0.00 | 0.00 | 81 | 1005.4 |
| 20260505060048 | 22 | 184 | 11.3 | 25.7 | 0.00 | 0.00 | 0.00 | 81 | 1005.4 |
| 20260505055523 | 22 | 153 | 11.3 | 25.7 | 0.00 | 0.00 | 0.00 | 81 | 1005.4 |
| 20260505055021 | 22 | 226 | 9.7 | 25.7 | 0.00 | 0.00 | 0.00 | 80 | 1005.6 |
| 20260505054522 | 22 | 240 | 9.7 | 25.7 | 0.00 | 0.00 | 0.00 | 80 | 1005.7 |
| 20260505054020 | 22 | 217 | 12.9 | 25.7 | 0.00 | 0.00 | 0.00 | 80 | 1005.6 |
| 20260505053520 | 22 | 184 | 8.0 | 25.7 | 0.00 | 0.00 | 0.00 | 80 | 1005.5 |
| 20260505053019 | 22 | 209 | 11.3 | 22.5 | 0.00 | 0.00 | 0.00 | 80 | 1005.6 |
| 20260505052517 | 22 | 194 | 9.7 | 22.5 | 0.00 | 0.00 | 0.00 | 80 | 1005.7 |
| 20260505052016 | 22 | 225 | 9.7 | 24.1 | 0.00 | 0.00 | 0.00 | 80 | 1005.7 |
| 20260505051516 | 22 | 213 | 12.9 | 24.1 | 0.00 | 0.00 | 0.00 | 79 | 1005.7 |
| 20260505051014 | 22 | 161 | 12.9 | 25.7 | 0.00 | 0.00 | 0.00 | 79 | 1005.6 |
| 20260505050514 | 22 | 212 | 11.3 | 32.2 | 0.00 | 0.00 | 0.00 | 79 | 1005.5 |
| 20260505041510 | 22 | 210 | 9.7 | 20.9 | 0.00 | 0.00 | 0.00 | 78 | 1005.7 |
| 20260505041012 | 22 | 193 | 8.0 | 24.1 | 0.00 | 0.00 | 0.00 | 78 | 1005.8 |
| 20260505040517 | 22 | 170 | 9.7 | 24.1 | 0.00 | 0.00 | 0.00 | 78 | 1005.7 |
| 20260505040019 | 22 | 194 | 9.7 | 22.5 | 0.00 | 0.00 | 0.00 | 78 | 1005.8 |
| 20260505035510 | 22 | 161 | 9.7 | 22.5 | 0.00 | 0.00 | 0.00 | 77 | 1005.6 |
| 20260505035010 | 22 | 186 | 9.7 | 22.5 | 0.00 | 0.00 | 0.00 | 77 | 1005.6 |
| 20260505034511 | 22 | 184 | 9.7 | 22.5 | 0.00 | 0.00 | 0.00 | 77 | 1005.6 |
| 20260505034015 | 22 | 214 | 9.7 | 22.5 | 0.00 | 0.00 | 0.00 | 76 | 1005.6 |
| 20260505033510 | 22 | 195 | 9.7 | 22.5 | 0.00 | 0.00 | 0.00 | 76 | 1005.7 |
| 20260505033010 | 22 | 195 | 9.7 | 22.5 | 0.00 | 0.00 | 0.00 | 76 | 1006.0 |
| 20260505032511 | 22 | 162 | 9.7 | 20.9 | 0.00 | 0.00 | 0.00 | 75 | 1005.9 |
| 20260505032011 | 22 | 154 | 11.3 | 20.9 | 0.00 | 0.00 | 0.00 | 75 | 1005.9 |
| 20260505031509 | 22 | 183 | 8.0 | 24.1 | 0.00 | 0.00 | 0.00 | 75 | 1005.7 |
| 20260505031009 | 23 | 161 | 11.3 | 24.1 | 0.00 | 0.00 | 0.00 | 74 | 1005.7 |
| 20260505030509 | 23 | 180 | 9.7 | 29.0 | 0.00 | 0.00 | 0.00 | 74 | 1005.7 |
| 20260505030009 | 23 | 201 | 12.9 | 29.0 | 0.00 | 0.00 | 0.00 | 74 | 1005.5 |
| 20260505025511 | 23 | 178 | 11.3 | 20.9 | 0.00 | 0.00 | 0.00 | 74 | 1005.6 |
| 20260505025009 | 23 | 192 | 9.7 | 24.1 | 0.00 | 0.00 | 0.00 | 74 | 1005.6 |
| 20260505024509 | 23 | 163 | 11.3 | 24.1 | 0.00 | 0.00 | 0.00 | 73 | 1005.5 |
| 20260505024008 | 23 | 188 | 6.4 | 19.3 | 0.00 | 0.00 | 0.00 | 73 | 1005.4 |
| 20260505023508 | 23 | 196 | 9.7 | 20.9 | 0.00 | 0.00 | 0.00 | 73 | 1005.4 |
| 20260505023008 | 23 | 160 | 11.3 | 20.9 | 0.00 | 0.00 | 0.00 | 72 | 1005.3 |
| 20260505022508 | 23 | 163 | 8.0 | 19.3 | 0.00 | 0.00 | 0.00 | 72 | 1005.2 |
| 20260505022008 | 23 | 167 | 8.0 | 17.7 | 0.00 | 0.00 | 0.00 | 72 | 1005.3 |
| 20260505021508 | 23 | 176 | 8.0 | 24.1 | 0.00 | 0.00 | 0.00 | 72 | 1005.3 |
| 20260505021008 | 23 | 179 | 9.7 | 24.1 | 0.00 | 0.00 | 0.00 | 72 | 1005.4 |
| 20260505020507 | 23 | 185 | 6.4 | 22.5 | 0.00 | 0.00 | 0.00 | 71 | 1005.3 |
| 20260505020007 | 23 | 171 | 11.3 | 24.1 | 0.00 | 0.00 | 0.00 | 71 | 1005.3 |
| 20260505015507 | 23 | 215 | 11.3 | 24.1 | 0.00 | 0.00 | 0.00 | 71 | 1005.3 |
| 20260505015007 | 23 | 177 | 6.4 | 16.1 | 0.00 | 0.00 | 0.00 | 70 | 1005.3 |
| 20260505014509 | 23 | 179 | 8.0 | 16.1 | 0.00 | 0.00 | 0.00 | 69 | 1005.3 |
| 20260505014007 | 23 | 150 | 6.4 | 17.7 | 0.00 | 0.00 | 0.00 | 69 | 1005.3 |
| 20260505013508 | 24 | 153 | 8.0 | 17.7 | 0.00 | 0.00 | 0.00 | 69 | 1005.2 |
| 20260505013006 | 24 | 161 | 8.0 | 17.7 | 0.00 | 0.00 | 0.00 | 68 | 1005.2 |
| 20260505012506 | 24 | 188 | 6.4 | 22.5 | 0.00 | 0.00 | 0.00 | 68 | 1005.2 |
| 20260505012006 | 24 | 185 | 9.7 | 24.1 | 0.00 | 0.00 | 0.00 | 68 | 1005.1 |
| 20260505011506 | 24 | 171 | 9.7 | 24.1 | 0.00 | 0.00 | 0.00 | 67 | 1005.2 |
| 20260505011005 | 24 | 183 | 9.7 | 20.9 | 0.00 | 0.00 | 0.00 | 67 | 1005.4 |
| 20260505010505 | 24 | 190 | 11.3 | 20.9 | 0.00 | 0.00 | 0.00 | 67 | 1005.4 |
| 20260505010006 | 25 | 189 | 11.3 | 19.3 | 0.00 | 0.00 | 0.00 | 66 | 1005.3 |
| 20260505005507 | 25 | 190 | 9.7 | 22.5 | 0.00 | 0.00 | 0.00 | 66 | 1005.2 |
| 20260505005005 | 25 | 163 | 8.0 | 22.5 | 0.00 | 0.00 | 0.00 | 65 | 1005.4 |
| 20260505004506 | 25 | 173 | 6.4 | 29.0 | 0.00 | 0.00 | 0.00 | 65 | 1005.5 |
| 20260505004003 | 25 | 191 | 9.7 | 29.0 | 0.00 | 0.00 | 0.00 | 65 | 1005.5 |
| 20260505003503 | 25 | 207 | 9.7 | 22.5 | 0.00 | 0.00 | 0.00 | 64 | 1005.5 |
| 20260505003002 | 25 | 197 | 11.3 | 24.1 | 0.00 | 0.00 | 0.00 | 64 | 1005.5 |
| 20260505002503 | 25 | 200 | 9.7 | 35.4 | 0.00 | 0.00 | 0.00 | 64 | 1005.5 |
| 20260505002003 | 25 | 215 | 9.7 | 35.4 | 0.00 | 0.00 | 0.00 | 63 | 1005.5 |
| 20260505001503 | 25 | 226 | 16.1 | 25.7 | 0.00 | 0.00 | 0.00 | 63 | 1005.5 |
| 20260505001006 | 25 | 167 | 9.7 | 40.2 | 0.00 | 0.00 | 0.00 | 63 | 1005.6 |
| 20260505000502 | 25 | 172 | 17.7 | 40.2 | 0.00 | 0.00 | 0.00 | 63 | 1005.5 |
| 20260505000002 | 25 | 200 | 11.3 | 30.6 | 0.00 | 0.00 | 0.00 | 63 | 1005.6 |
| 20260504235502 | 25 | 194 | 14.5 | 37.0 | 0.00 | 0.00 | 0.00 | 62 | 1005.6 |
| 20260504235002 | 25 | 191 | 11.3 | 37.0 | 0.00 | 0.00 | 0.00 | 62 | 1005.7 |
| 20260504234501 | 25 | 177 | 14.5 | 35.4 | 0.00 | 0.00 | 0.00 | 62 | 1005.8 |
| 20260504234001 | 25 | 221 | 11.3 | 29.0 | 0.00 | 0.00 | 0.00 | 61 | 1005.8 |
| 20260504233601 | 26 | 188 | 11.3 | 32.2 | 0.00 | 0.00 | 0.00 | 61 | 1005.8 |
| 20260504233502 | 26 | 175 | 11.3 | 32.2 | 0.00 | 0.00 | 0.00 | 61 | 1005.8 |
| 20260504233103 | 26 | 156 | 12.9 | 32.2 | 0.00 | 0.00 | 0.00 | 60 | 1005.8 |
| 20260504232602 | 26 | 162 | 9.7 | 37.0 | 0.00 | 0.00 | 0.00 | 61 | 1005.7 |
| 20260504232059 | 26 | 194 | 16.1 | 38.6 | 0.00 | 0.00 | 0.00 | 60 | 1005.8 |
| 20260504231558 | 26 | 217 | 19.3 | 38.6 | 0.00 | 0.00 | 0.00 | 60 | 1005.9 |
| 20260504231058 | 26 | 225 | 11.3 | 40.2 | 0.00 | 0.00 | 0.00 | 60 | 1005.9 |
| 20260504230659 | 26 | 211 | 9.7 | 40.2 | 0.00 | 0.00 | 0.00 | 60 | 1006.0 |
| 20260504230056 | 26 | 192 | 17.7 | 37.0 | 0.00 | 0.00 | 0.00 | 60 | 1006.1 |
| 20260504225556 | 26 | 144 | 12.9 | 32.2 | 0.00 | 0.00 | 0.00 | 59 | 1006.0 |
| 20260504225055 | 26 | 192 | 16.1 | 32.2 | 0.00 | 0.00 | 0.00 | 59 | 1006.1 |
| 20260504224555 | 26 | 219 | 14.5 | 30.6 | 0.00 | 0.00 | 0.00 | 59 | 1006.2 |
| 20260504224058 | 26 | 224 | 12.9 | 30.6 | 0.00 | 0.00 | 0.00 | 59 | 1006.2 |
| 20260504223559 | 26 | 223 | 11.3 | 35.4 | 0.00 | 0.00 | 0.00 | 60 | 1006.3 |
| 20260504223110 | 26 | 198 | 19.3 | 35.4 | 0.00 | 0.00 | 0.00 | 59 | 1006.3 |
| 20260504222553 | 26 | 185 | 14.5 | 33.8 | 0.00 | 0.00 | 0.00 | 59 | 1006.3 |
| 20260504222053 | 26 | 215 | 14.5 | 33.8 | 0.00 | 0.00 | 0.00 | 59 | 1006.4 |
| 20260504221553 | 26 | 225 | 19.3 | 33.8 | 0.00 | 0.00 | 0.00 | 58 | 1006.4 |
| 20260504221053 | 26 | 224 | 17.7 | 33.8 | 0.00 | 0.00 | 0.00 | 57 | 1006.5 |
| 20260504220552 | 26 | 200 | 16.1 | 32.2 | 0.00 | 0.00 | 0.00 | 58 | 1006.5 |
| 20260504220053 | 26 | 213 | 14.5 | 37.0 | 0.00 | 0.00 | 0.00 | 57 | 1006.4 |
| 20260504215557 | 26 | 181 | 16.1 | 38.6 | 0.00 | 0.00 | 0.00 | 57 | 1006.5 |
| 20260504215051 | 27 | 225 | 14.5 | 38.6 | 0.00 | 0.00 | 0.00 | 57 | 1006.7 |
| 20260504214552 | 27 | 190 | 12.9 | 33.8 | 0.00 | 0.00 | 0.00 | 57 | 1006.6 |
| 20260504214055 | 27 | 227 | 14.5 | 33.8 | 0.00 | 0.00 | 0.00 | 56 | 1006.7 |
| 20260504213551 | 27 | 226 | 8.0 | 35.4 | 0.00 | 0.00 | 0.00 | 57 | 1006.7 |
| 20260504213050 | 26 | 225 | 12.9 | 38.6 | 0.00 | 0.00 | 0.00 | 56 | 1006.8 |
| 20260504212552 | 27 | 240 | 16.1 | 38.6 | 0.00 | 0.00 | 0.00 | 55 | 1007.1 |
| 20260504212048 | 27 | 216 | 17.7 | 33.8 | 0.00 | 0.00 | 0.00 | 56 | 1007.1 |
| 20260504211631 | 27 | 242 | 12.9 | 33.8 | 0.00 | 0.00 | 0.00 | 56 | 1007.2 |
| 20260504211048 | 27 | 205 | 12.9 | 33.8 | 0.00 | 0.00 | 0.00 | 56 | 1007.1 |
| 20260504210547 | 27 | 174 | 16.1 | 35.4 | 0.00 | 0.00 | 0.00 | 55 | 1007.2 |
| 20260504210051 | 27 | 208 | 14.5 | 35.4 | 0.00 | 0.00 | 0.00 | 55 | 1007.4 |
| 20260504205546 | 27 | 230 | 16.1 | 38.6 | 0.00 | 0.00 | 0.00 | 55 | 1007.5 |
| 20260504205045 | 27 | 193 | 22.5 | 38.6 | 0.00 | 0.00 | 0.00 | 54 | 1007.5 |
| 20260504204545 | 27 | 191 | 12.9 | 35.4 | 0.00 | 0.00 | 0.00 | 55 | 1007.7 |
| 20260504204044 | 27 | 244 | 16.1 | 35.4 | 0.00 | 0.00 | 0.00 | 55 | 1007.8 |
| 20260504203543 | 27 | 200 | 12.9 | 29.0 | 0.00 | 0.00 | 0.00 | 55 | 1008.0 |
| 20260504203043 | 27 | 182 | 14.5 | 35.4 | 0.00 | 0.00 | 0.00 | 55 | 1008.0 |
| 20260504202541 | 27 | 195 | 12.9 | 35.4 | 0.00 | 0.00 | 0.00 | 54 | 1008.3 |
| 20260504202040 | 27 | 226 | 12.9 | 32.2 | 0.00 | 0.00 | 0.00 | 54 | 1008.4 |
| 20260504201539 | 27 | 223 | 19.3 | 32.2 | 0.00 | 0.00 | 0.00 | 53 | 1008.6 |
| 20260504201038 | 27 | 208 | 14.5 | 32.2 | 0.00 | 0.00 | 0.00 | 54 | 1008.6 |
| 20260504200539 | 26 | 215 | 14.5 | 37.0 | 0.00 | 0.00 | 0.00 | 54 | 1008.7 |
| 20260504200039 | 26 | 212 | 12.9 | 37.0 | 0.00 | 0.00 | 0.00 | 54 | 1008.7 |
| 20260504195537 | 27 | 186 | 19.3 | 37.0 | 0.00 | 0.00 | 0.00 | 52 | 1008.7 |
| 20260504195037 | 27 | 159 | 11.3 | 32.2 | 0.00 | 0.00 | 0.00 | 53 | 1008.7 |
| 20260504194544 | 27 | 171 | 16.1 | 32.2 | 0.00 | 0.00 | 0.00 | 52 | 1008.7 |
| 20260504194037 | 27 | 207 | 12.9 | 22.5 | 0.00 | 0.00 | 0.00 | 51 | 1008.8 |
| 20260504193537 | 27 | 231 | 11.3 | 22.5 | 0.00 | 0.00 | 0.00 | 52 | 1009.0 |
| 20260504193036 | 27 | 215 | 6.4 | 30.6 | 0.00 | 0.00 | 0.00 | 52 | 1009.1 |
| 20260504192532 | 26 | 257 | 11.3 | 30.6 | 0.00 | 0.00 | 0.00 | 53 | 1009.3 |
| 20260504192032 | 26 | 141 | 16.1 | 33.8 | 0.00 | 0.00 | 0.00 | 52 | 1009.3 |
| 20260504191535 | 26 | 186 | 16.1 | 35.4 | 0.00 | 0.00 | 0.00 | 51 | 1009.3 |
| 20260504191031 | 26 | 212 | 20.9 | 35.4 | 0.00 | 0.00 | 0.00 | 51 | 1009.5 |
| 20260504190530 | 26 | 178 | 11.3 | 33.8 | 0.00 | 0.00 | 0.00 | 52 | 1009.6 |
| 20260504190029 | 26 | 154 | 17.7 | 33.8 | 0.00 | 0.00 | 0.00 | 51 | 1009.6 |
| 20260504185532 | 26 | 245 | 14.5 | 30.6 | 0.00 | 0.00 | 0.00 | 52 | 1009.8 |
| 20260504185029 | 26 | 191 | 19.3 | 32.2 | 0.00 | 0.00 | 0.00 | 51 | 1009.8 |
| 20260504184542 | 26 | 210 | 12.9 | 33.8 | 0.00 | 0.00 | 0.00 | 51 | 1009.8 |
| 20260504184027 | 26 | 191 | 6.4 | 33.8 | 0.00 | 0.00 | 0.00 | 52 | 1010.0 |
| 20260504183526 | 25 | 205 | 11.3 | 33.8 | 0.00 | 0.00 | 0.00 | 51 | 1010.0 |
| 20260504183025 | 25 | 175 | 17.7 | 40.2 | 0.00 | 0.00 | 0.00 | 52 | 1010.0 |
| 20260504182524 | 25 | 186 | 16.1 | 40.2 | 0.00 | 0.00 | 0.00 | 52 | 1010.2 |
| 20260504182024 | 25 | 246 | 11.3 | 38.6 | 0.00 | 0.00 | 0.00 | 52 | 1010.2 |
| 20260504181523 | 25 | 217 | 14.5 | 38.6 | 0.00 | 0.00 | 0.00 | 50 | 1010.2 |
| 20260504181023 | 25 | 198 | 16.1 | 33.8 | 0.00 | 0.00 | 0.00 | 50 | 1010.3 |
| 20260504180520 | 25 | 168 | 11.3 | 35.4 | 0.00 | 0.00 | 0.00 | 52 | 1010.3 |
| 20260504180019 | 25 | 212 | 12.9 | 37.0 | 0.00 | 0.00 | 0.00 | 51 | 1010.4 |
| 20260504175518 | 25 | 153 | 16.1 | 37.0 | 0.00 | 0.00 | 0.00 | 50 | 1010.6 |
| 20260504175022 | 25 | 139 | 14.5 | 35.4 | 0.00 | 0.00 | 0.00 | 51 | 1010.6 |
| 20260504174517 | 25 | 227 | 17.7 | 35.4 | 0.00 | 0.00 | 0.00 | 50 | 1010.7 |
| 20260504174016 | 25 | 171 | 17.7 | 35.4 | 0.00 | 0.00 | 0.00 | 50 | 1010.9 |
| 20260504173516 | 25 | 185 | 14.5 | 30.6 | 0.00 | 0.00 | 0.00 | 50 | 1011.0 |
| 20260504173015 | 25 | 190 | 12.9 | 33.8 | 0.00 | 0.00 | 0.00 | 49 | 1011.1 |
| 20260504172513 | 24 | 163 | 16.1 | 33.8 | 0.00 | 0.00 | 0.00 | 49 | 1011.2 |
| 20260504172011 | 24 | 218 | 12.9 | 30.6 | 0.00 | 0.00 | 0.00 | 49 | 1011.1 |
| 20260504171510 | 24 | 231 | 11.3 | 38.6 | 0.00 | 0.00 | 0.00 | 49 | 1011.2 |
| 20260504171009 | 24 | 174 | 17.7 | 38.6 | 0.00 | 0.00 | 0.00 | 50 | 1011.3 |